Location: Colorado Springs
(38.8340°N, 104.8210°W)
Time: 18:46:26
(UTC-07:00)

Vanguard 3 - Pass Details

Date: 24 October 2017
Orbit: 510 x 3263 km, 33.3° (Epoch: 24 November)

Event Time Altitude Azimuth Distance (km) Brightness Sun altitude
Rises 03:04:50 0° 229° (SW) 7,209 - -48.7°
Reaches altitude 10° 03:10:09 10° 225° (SW) 6,081 - -47.8°
Maximum altitude 03:27:11 48° 159° (SSE) 3,024 - -44.8°
Exits shadow 03:27:23 48° 157° (SSE) 3,012 9.8 -44.8°
Drops below altitude 10° 03:38:12 10° 90° (E) 4,060 11.2 -42.9°
Sets 03:40:59 0° 84° (E) 4,733 11.8 -42.4°
